Location: Macksville High School
(37.9611°N, 99.9654°W)
Time: 20:04:06
(UTC+00:00)

Chandra Rocket (1) - Pass Details

Date: 17 January 2021
Orbit: 347 x 11000 km, 28.4° (Epoch: 26 February)

Event Time Altitude Azimuth Distance (km) Brightness Sun altitude
Exits shadow 12:29:03 11° 228° (SW) 1,987 4.3 -16.5°
Maximum altitude 12:31:34 18° 188° (S) 1,243 3.7 -16.0°
Drops below altitude 10° 12:33:34 10° 141° (SE) 1,397 4.7 -15.7°
Sets 12:35:36 0° 116° (ESE) 2,131 6.5 -15.3°
